User: anonymous   Login
Location: Unspecified
(0.0000°N, 0.0000°E)
Time: 16:31:36
(UTC+00:00)
Language:

Hamsat - Orbit

View from above orbital plane
View from above orbital plane
View from above satellite
View from above satellite

Ground track
Ground track

The orbit data is extracted from the following two-line orbital elements,

1 28650U 05017B   17204.92159492 +.00000250 +00000-0 +32383-4 0  9999
2 28650 097.6536 178.0195 0023903 012.9233 347.2592 14.88695957661565
Epoch (UTC): 23 July 2017 22:07:05
Eccentricity: 0.0023903
inclination: 97.6536°
perigee height: 585 km
apogee height: 618 km
right ascension of ascending node: 178.0195°
argument of perigee: 12.9233°
revolutions per day: 14.88695957
mean anomaly at epoch: 347.2592°
orbit number at epoch: 66156

The dashed part of the orbit path shows where the satellite is in the earth's shadow,  

DLR